Content
SEND FEEDBACK

Daily
Averages
Monthly
Summary
United States of America

PUT IN BAY, OHIO


Home > North America > United States > Ohio
Elevation: 561 feet     Latitude: 41 39N     Longitude: 082 48W

WEATHER
 
SELECT A DAY
Number of Records: 124,292;   Date Range: 12/10/00 - 9/30/14
 
SHARE

PRINT THIS DATA

[ ← Previous Day ]
WEATHER ALMANAC - AUGUST 20, 2013
[ Next Day → ]
[ °C ]   °F
Weather ElementAverageHighLow
Temperature72.4 °F80.4 °F (4:00 pm)60.4 °F (7:00 am)
Dewpoint64.2 °F67.3 °F (9:00 am)58.1 °F (7:00 am)
Humidity75.4 %92 % (5:00 am)54 % (2:00 pm)
Barometer30.09 in30.13 in (10:00 am)30.04 in (1:00 am)
Wind Speed5 mph10.4 mph (5:00 pm)
Weather ElementAverage
Wind DirectionSSW (212.2 °)

Weather ElementTotal
Precipitation---
Cooling Degree Days5.4 (Base 65)
Growing Degree Days20.4 (Base 50)
Averaged from 27 records on August 20, 2013
WEATHER CONDITIONS BREAKOUT
WIND DIRECTION BREAKOUT
WEATHER BY HOUR - AUGUST 20, 2013
[ °C ]   °F
Local TimeTemperatureDewpointHumidityBarometerVisibilityWind DirectionWind SpeedGust SpeedPrecipitationEventsConditions
1:00 AM68.0 °F64.9 °F90 %30.04 inSouth (180°)3.5 mph
2:00 AM68.0 °F64.0 °F83 %30.04 inSW (230°)3.5 mph
2:00 AM68.0 °F64.0 °F87 %30.04 inSW (230°)3.5 mph
3:00 AM66.6 °F63.5 °F90 %30.04 inWest (260°)3.5 mph
4:00 AM66.0 °F63.1 °F90 %30.05 inWNW (300°)2.3 mph
5:00 AM64.4 °F61.9 °F92 %30.07 inNNW (330°)2.3 mph
6:00 AM62.1 °F59.2 °F90 %30.08 inWNW (290°)1.2 mph
7:00 AM60.4 °F58.1 °F92 %30.09 inCalm
8:00 AM65.0 °F61.0 °F83 %30.11 inWSW (250°)1.2 mph
8:00 AM65.1 °F61.0 °F86 %30.11 inWSW (250°)1.2 mph
9:00 AM72.1 °F67.3 °F85 %30.12 inWSW (240°)4.6 mph
10:00 AM74.5 °F65.5 °F73 %30.13 inWest (260°)5.8 mph
11:00 AM75.9 °F63.7 °F66 %30.13 inSW (230°)5.8 mph
12:00 PM77.5 °F62.6 °F60 %30.13 inSW (230°)8.1 mph
1:00 PM78.4 °F65.5 °F64 %30.12 inSW (220°)6.9 mph
2:00 PM80.0 °F66.0 °F54 %30.12 inSSW (210°)6.9 mph
2:00 PM79.5 °F66.0 °F63 %30.12 inSSW (210°)6.9 mph
3:00 PM80.2 °F66.7 °F63 %30.10 inSSW (200°)8.1 mph
4:00 PM80.4 °F64.6 °F58 %30.09 inSouth (190°)9.2 mph
5:00 PM80.4 °F63.3 °F56 %30.08 inSouth (190°)10.4 mph
6:00 PM79.9 °F64.8 °F60 %30.07 inSouth (180°)8.1 mph
7:00 PM78.1 °F65.1 °F64 %30.07 inSouth (180°)6.9 mph
8:00 PM75.0 °F66.0 °F65 %30.07 inSouth (170°)4.6 mph
8:00 PM74.8 °F65.7 °F73 %30.07 inSouth (170°)4.6 mph
9:00 PM72.0 °F65.5 °F80 %30.08 inSouth (170°)4.6 mph
10:00 PM72.0 °F66.4 °F83 %30.09 inSouth (180°)5.8 mph
11:00 PM71.6 °F66.9 °F85 %30.09 inSouth (180°)4.6 mph
Hourly data recorded from CXHA, located miles away from Put In Bay, Ohio







STORIES FROM OUR PARTNERS